User: anonymous   Login
Location: Newark
(39.5667°N, 8.9833°E)
Time: 05:04:17
(UTC+00:00)
Language:

Transit 4A - Orbit

View from above orbital plane
View from above orbital plane
View from above satellite
View from above satellite

Ground track
Ground track

The orbit data is extracted from the following two-line orbital elements,

1   116U 61015A   19288.85128549 -.00000074  00000-0  22729-5 0  9990
2   116  66.8087  88.6004 0076517 186.0506 173.9658 13.91759879958126
Epoch (UTC): 15 October 2019 20:25:51
Eccentricity: 0.0076517
inclination: 66.8087°
perigee height: 866 km
apogee height: 978 km
right ascension of ascending node: 88.6004°
argument of perigee: 186.0506°
revolutions per day: 13.91759879
mean anomaly at epoch: 173.9658°
orbit number at epoch: 95812

The dashed part of the orbit path shows where the satellite is in the earth's shadow,  

DLR